Weather History for Chanute, KS

Change the Weather History Date:

Thursday, August 8, 2013

  Actual Average Record
Temperature  
Mean Temperature 75 °F 80 °F  
Max Temperature 81 °F 91 °F 108 °F (1970)
Min Temperature 69 °F 69 °F 52 °F (1989)
Degree Days  
Heating Degree Days 0 0  
Month to date heating degree days 0 0  
Since 1 June heating degree days 10 6  
Since 1 July heating degree days 0 0  
Cooling Degree Days 10 15  
Month to date cooling degree days 113 120  
Year to date cooling degree days 977 994  
Since 1 June cooling degree days 854 861  
Growing Degree Days 25 (Base 50)    
Moisture  
Dew Point 70 °F    
Average Humidity 86    
Maximum Humidity 97    
Minimum Humidity 74    
Precipitation  
Precipitation 0.46 in 0.11 in 2.60 in (1927)
Month to date precipitation 3.67 0.92  
Year to date precipitation 34.54 27.72  
Sea Level Pressure  
Sea Level Pressure 29.93 in    
Wind  
Wind Speed 8 mph (NE)    
Max Wind Speed 22 mph    
Max Gust Speed 30 mph    
Visibility 9 miles    
Events Rain , Thunderstorm    
T = Trace of Precipitation, MM = Missing Value Source: NWS Daily Summary

Daily Weather History Graph

Daily Weather History Graph

Search for Another Location

Airport:

Trip Planner

Search our weather history database for the weather conditions in past years. The results will help you decide how hot, cold, wet, or windy it might be!

Date:

Astronomy

Aug. 08, 2013 Rise Set
Actual Time 6:31 AM CDT 8:22 PM CDT
Civil Twilight 6:03 AM CDT 8:50 PM CDT
Nautical Twilight 5:28 AM CDT 9:25 PM CDT
Astronomical Twilight 4:51 AM CDT 10:02 PM CDT
Moon 8:16 AM CDT (8/8) 9:05 PM CDT (8/8)
Length of Visible Light 14h 47m
Length of Day
13h 50m
Waxing Crescent, 3% of the Moon is Illuminated
Aug 8
Waxing Crescent
Aug 14
First Quarter
Aug 20
Full
Aug 28
Last Quarter
Sep 5
New

Hourly Weather History & Observations

Time (CDT) Temp. Heat Index Dew Point Humidity Pressure Visibility Wind Dir Wind Speed Gust Speed Precip Events Conditions
12:52 AM 75.9 °F - 72.0 °F 87% 29.88 in 10.0 mi NE 5.8 mph - N/A   Clear
1:52 AM 75.0 °F - 71.1 °F 87% 29.87 in 10.0 mi ENE 5.8 mph - N/A   Clear
2:52 AM 73.9 °F - 71.1 °F 91% 29.85 in 10.0 mi NE 6.9 mph - N/A   Clear
3:19 AM 75.2 °F - 71.6 °F 89% 29.89 in 10.0 mi ENE 6.9 mph - N/A   Mostly Cloudy
3:52 AM 75.0 °F - 72.0 °F 90% 29.85 in 10.0 mi East 6.9 mph - N/A   Overcast
4:10 AM 75.2 °F - 71.6 °F 89% 29.87 in 10.0 mi NE 9.2 mph - N/A   Mostly Cloudy
4:52 AM 75.0 °F - 72.0 °F 90% 29.85 in 10.0 mi ENE 6.9 mph - N/A   Clear
5:33 AM 75.2 °F - 71.6 °F 89% 29.95 in 8.0 mi SSE 6.9 mph - 0.02 in Rain , Thunderstorm Light Rain
5:43 AM 75.2 °F - 73.4 °F 94% 29.96 in 5.0 mi South 4.6 mph - 0.05 in Rain , Thunderstorm Thunderstorms and Rain
5:52 AM 75.0 °F - 73.0 °F 94% 29.93 in 4.0 mi South 8.1 mph - 0.07 in Rain , Thunderstorm Thunderstorms and Rain
6:07 AM 73.4 °F - 69.8 °F 88% 29.99 in 7.0 mi SSW 11.5 mph - 0.04 in Rain , Thunderstorm Rain
6:15 AM 73.4 °F - 69.8 °F 88% 30.00 in 6.0 mi SW 19.6 mph 24.2 mph 0.06 in Rain , Thunderstorm Rain
6:17 AM 73.4 °F - 69.8 °F 88% 30.00 in 5.0 mi SW 16.1 mph 24.2 mph 0.06 in Rain , Thunderstorm Rain
6:28 AM 71.6 °F - 69.8 °F 94% 30.01 in 5.0 mi West 20.7 mph 29.9 mph 0.10 in Rain , Thunderstorm Rain
6:52 AM 70.0 °F - 68.0 °F 93% 29.98 in 5.0 mi NW 13.8 mph - 0.21 in Rain , Thunderstorm Rain
6:59 AM 69.8 °F - 66.2 °F 88% 30.01 in 7.0 mi NNW 17.3 mph 23.0 mph 0.02 in Rain , Thunderstorm Rain
7:12 AM 69.8 °F - 66.2 °F 88% 30.01 in 8.0 mi North 10.4 mph - 0.05 in Rain Rain
7:52 AM 69.1 °F - 66.0 °F 90% 29.91 in 10.0 mi NE 11.5 mph - 0.17 in Rain Light Rain
8:52 AM 72.0 °F - 68.0 °F 87% 29.87 in 10.0 mi SSW 5.8 mph - 0.01 in   Clear
9:52 AM 73.0 °F - 69.1 °F 87% 29.87 in 10.0 mi SSW 10.4 mph - N/A   Partly Cloudy
10:52 AM 73.9 °F - 69.1 °F 85% 29.88 in 10.0 mi SSE 8.1 mph - N/A   Clear
11:52 AM 75.0 °F - 70.0 °F 84% 29.93 in 10.0 mi North 8.1 mph - N/A   Overcast
12:52 PM 78.1 °F - 70.0 °F 76% 29.92 in 10.0 mi NNE 6.9 mph - N/A   Mostly Cloudy
1:03 PM 78.8 °F - 71.6 °F 78% 29.95 in 10.0 mi NNE 6.9 mph - N/A   Mostly Cloudy
1:52 PM 79.0 °F - 70.0 °F 74% 29.92 in 10.0 mi NE 8.1 mph - N/A   Overcast
2:04 PM 80.6 °F 83.9 °F 69.8 °F 70% 29.95 in 10.0 mi NE 8.1 mph - N/A   Scattered Clouds
2:52 PM 81.0 °F 84.9 °F 71.1 °F 72% 29.91 in 10.0 mi NNE 8.1 mph - N/A   Overcast
3:52 PM 79.0 °F - 71.1 °F 77% 29.93 in 10.0 mi North 6.9 mph - N/A   Overcast
4:52 PM 79.0 °F - 71.1 °F 77% 29.92 in 10.0 mi NE 8.1 mph - N/A   Overcast
5:52 PM 77.0 °F - 71.1 °F 82% 29.92 in 10.0 mi NNE 8.1 mph - N/A   Mostly Cloudy
6:19 PM 75.2 °F - 71.6 °F 89% 29.94 in 10.0 mi NNE 9.2 mph - N/A   Overcast
6:42 PM 75.2 °F - 71.6 °F 89% 29.93 in 10.0 mi NNE 9.2 mph - N/A   Overcast
6:52 PM 75.0 °F - 70.0 °F 84% 29.91 in 10.0 mi NE 10.4 mph - N/A   Overcast
7:29 PM 73.4 °F - 69.8 °F 88% 29.94 in 10.0 mi NE 10.4 mph - N/A   Overcast
7:52 PM 73.9 °F - 69.1 °F 85% 29.91 in 10.0 mi NE 9.2 mph - N/A   Overcast
8:05 PM 73.4 °F - 69.8 °F 88% 29.94 in 10.0 mi NNE 6.9 mph - N/A   Overcast
8:44 PM 73.4 °F - 69.8 °F 88% 29.94 in 10.0 mi ENE 9.2 mph - 0.00 in   Overcast
8:52 PM 73.0 °F - 69.1 °F 87% 29.92 in 10.0 mi NE 6.9 mph - 0.00 in   Overcast
9:52 PM 73.0 °F - 70.0 °F 90% 29.96 in 10.0 mi NE 4.6 mph - N/A   Overcast
10:52 PM 73.0 °F - 69.1 °F 87% 29.95 in 10.0 mi NE 6.9 mph - N/A   Overcast
11:52 PM 72.0 °F - 66.9 °F 84% 29.95 in 10.0 mi ENE 8.1 mph - N/A   Mostly Cloudy